RH
19 18 18 19 19 19 18 17 17 16 16 15 14 13 13 12 12 11 11 11 10 10 9 9 14 17 18 20 19 18 17 17 21 27 27 22 17 16 16 14 14 12 12 13 20 26 20 17 18 15 18 24 26 28 28 27 28 31 33 33 31 27 22 19 17 15 15 16 15 15 14 13 14 16 15 15 16 16 17 18 16 16 16 17 19 24 27 28
19 19 19 19 20 20 19 19 18 18 17 17 16 15 13 12 12 11 11 11 10 10 9 9 14 17 19 20 20 20 18 17 23 27 22 20 20 17 14 12 12 12 11 16 24 22 16 16 15 14 18 24 27 27 30 27 27 32 32 30 28 23 18 15 13 12 13 13 13 13 14 13 13 15 16 15 16 16 17 16 16 16 17 19 21 25 28 28
21 21 20 20 20 20 20 20 19 18 18 18 17 16 15 14 13 12 12 11 10 10 9 10 13 18 18 19 22 19 20 27 28 25 22 20 20 17 13 10 9 11 11 16 22 19 15 14 12 14 16 19 24 28 31 28 25 27 28 30 27 20 17 14 12 12 11 12 12 12 13 14 13 13 15 16 16 16 17 16 16 16 17 20 24 27 28 28
22 22 21 21 21 20 20 20 19 19 18 18 17 16 16 15 13 12 11 11 10 9 9 9 11 18 17 19 21 17 31 44 31 22 24 22 20 18 13 9 9 10 11 15 19 17 15 14 13 13 16 18 19 23 28 28 25 23 24 27 22 16 17 14 11 12 12 13 13 13 15 15 13 13 15 16 17 17 15 14 14 14 15 17 24 28 27 27
23 22 21 20 20 19 19 18 18 17 17 17 16 16 15 15 13 11 10 10 10 9 9 8 9 15 18 22 19 20 37 37 25 24 23 21 20 16 12 9 9 9 11 15 17 16 14 14 14 14 17 19 18 20 22 22 22 23 22 22 19 14 16 13 12 16 15 14 15 15 15 15 13 14 15 15 17 17 13 12 12 12 13 15 21 28 28 28
24 22 20 20 19 18 18 17 16 15 15 15 15 15 14 14 13 11 10 9 9 8 8 8 8 13 19 22 19 30 38 22 22 28 17 17 18 12 11 8 8 10 11 14 15 14 15 14 15 16 18 18 19 18 17 17 19 22 21 17 16 14 14 12 13 19 17 14 15 15 14 14 14 15 15 15 16 14 12 12 12 12 14 15 19 26 29 29
28 25 22 20 18 17 17 15 15 13 13 13 13 13 13 13 13 11 10 8 8 7 7 7 8 13 18 25 29 38 38 23 24 23 13 15 14 10 11 9 9 10 12 15 14 14 15 15 15 16 17 16 16 14 14 16 18 20 19 15 14 14 14 12 14 19 17 15 15 14 16 15 16 17 14 14 14 13 12 11 11 13 15 17 20 24 28 29
35 31 26 23 20 18 17 15 14 13 12 11 11 11 11 12 11 11 10 8 8 7 7 7 8 14 17 32 42 35 30 27 24 18 13 13 11 11 11 10 10 10 14 15 13 13 15 15 14 15 16 17 15 14 15 16 17 19 18 15 14 14 14 13 15 18 16 16 15 15 18 17 16 16 14 15 14 12 13 12 12 13 15 17 19 23 27 29
44 38 32 28 24 21 20 18 16 14 13 12 11 11 10 11 11 11 10 8 8 6 7 6 10 16 17 33 41 28 26 28 24 19 16 12 12 12 12 15 13 11 15 15 13 14 15 16 15 17 18 17 17 16 16 17 17 17 16 15 14 15 14 13 14 15 16 16 16 17 19 17 15 15 16 15 14 13 13 13 13 14 15 16 17 21 24 27
59 51 42 34 29 25 23 20 18 16 15 13 12 12 11 11 10 10 10 8 8 7 7 7 10 14 19 34 34 26 29 26 20 20 18 16 15 13 14 19 16 13 15 14 13 13 14 17 17 21 21 17 16 16 16 18 18 15 15 15 15 15 14 14 14 13 16 16 16 19 19 16 15 17 18 15 13 14 14 14 13 14 15 15 15 18 21 24
79 68 57 48 38 30 26 23 20 18 17 16 15 14 13 12 11 10 10 9 8 8 7 7 10 13 24 37 30 24 27 22 18 18 19 19 17 16 16 17 15 16 17 13 12 13 15 17 16 18 20 17 17 16 16 16 16 15 15 16 16 15 14 14 14 14 15 15 16 18 19 17 17 20 19 14 13 13 14 15 14 14 15 16 15 16 19 21
90 83 76 65 52 40 33 28 24 21 19 20 18 17 15 13 13 11 10 9 9 9 8 10 12 16 29 35 28 23 22 20 19 17 18 19 18 18 17 16 13 15 21 18 17 18 15 18 19 17 17 18 18 17 17 17 16 14 16 18 17 15 15 14 13 14 15 15 16 17 20 20 18 20 17 14 14 13 14 14 14 15 15 16 16 16 18 19
93 91 88 79 69 57 44 37 35 29 24 23 20 20 18 16 15 12 11 10 9 10 9 12 13 19 32 31 24 25 22 21 20 18 19 18 18 19 16 16 13 13 18 20 26 24 15 16 21 19 17 18 19 17 18 17 16 16 16 18 20 19 18 14 11 13 15 17 16 16 22 20 15 16 15 14 15 14 15 15 15 15 15 16 17 17 17 18
95 93 93 89 83 72 58 50 49 44 35 31 26 22 20 19 17 13 13 10 10 13 14 15 15 25 36 26 21 25 23 23 22 22 21 18 22 23 17 16 15 14 15 19 26 22 14 16 21 20 18 18 19 18 18 18 17 18 18 19 22 25 23 14 12 14 15 18 16 16 22 18 11 12 13 14 14 14 16 16 15 15 16 16 16 18 17 17
94 94 96 95 89 83 77 68 62 57 48 39 30 23 20 19 18 16 14 10 12 16 18 18 19 32 37 25 25 26 22 23 22 27 25 19 27 28 21 20 18 16 17 19 19 16 16 19 22 21 18 17 19 20 21 20 18 17 23 28 26 27 25 15 15 15 15 19 16 17 24 20 13 11 10 12 14 15 15 15 15 15 15 15 16 17 17 17
93 94 97 96 89 87 90 78 65 61 54 44 31 22 18 17 17 17 14 13 16 18 25 30 26 31 31 23 29 28 24 27 24 30 28 20 28 30 25 24 22 20 20 18 17 17 19 21 25 26 22 19 20 23 25 26 26 21 23 31 30 28 25 18 17 15 15 20 18 18 21 18 13 11 10 13 14 14 15 14 14 14 14 13 14 15 16 17
91 93 98 97 88 86 86 71 61 61 53 42 29 18 16 16 16 18 18 20 23 23 29 36 30 26 24 20 27 26 26 31 30 33 29 21 27 29 25 24 23 24 22 21 21 22 21 22 27 28 23 22 20 23 32 37 34 28 24 26 27 26 23 20 19 17 16 19 20 19 19 16 13 11 10 12 14 14 14 14 13 12 12 12 12 13 16 17
89 94 101 98 87 83 75 61 60 59 48 37 26 17 14 13 13 22 30 29 33 35 32 32 28 25 26 23 22 24 29 34 35 35 28 23 23 25 25 23 23 24 24 24 24 24 24 23 26 28 26 25 22 24 35 38 30 26 24 22 23 21 21 20 17 17 19 19 19 20 21 20 16 13 12 11 12 13 14 13 12 12 11 11 12 12 13 17
89 97 102 94 82 76 67 62 64 57 46 34 20 15 20 26 26 34 46 41 38 39 31 29 29 25 23 22 24 30 34 34 34 33 28 23 21 25 24 20 23 24 22 26 25 24 27 27 31 37 35 27 22 23 28 27 21 20 20 20 23 22 20 18 14 16 19 20 21 20 20 19 16 15 14 12 11 12 12 12 12 12 12 12 12 13 14 15
91 99 99 86 78 74 67 66 65 55 44 31 24 26 32 39 33 30 41 39 32 25 18 21 26 22 17 24 34 36 34 32 32 32 29 23 21 25 23 19 28 30 24 28 30 26 28 35 38 37 31 24 20 19 19 20 18 17 20 22 24 24 21 16 14 16 17 20 21 19 19 17 15 15 13 12 12 12 12 12 12 12 12 12 11 14 15 15
90 94 93 86 82 78 70 65 57 50 42 36 45 43 33 37 38 35 34 27 25 24 20 18 19 20 17 27 38 32 28 29 33 36 29 23 22 23 22 21 30 34 28 26 29 29 33 39 38 29 22 18 17 15 15 18 17 17 22 24 24 25 23 17 15 16 15 20 21 18 19 18 16 15 13 13 12 12 12 11 12 11 11 12 12 15 18 23
85 87 90 89 85 79 72 62 55 58 51 45 56 52 43 51 53 56 52 33 23 23 25 23 19 19 14 20 29 24 22 22 29 41 33 25 26 21 19 22 27 29 26 24 27 34 42 41 32 23 19 17 15 15 16 18 19 21 24 27 28 25 24 20 16 16 16 20 23 20 20 20 16 15 14 14 13 12 12 11 12 12 12 12 12 16 24 31
82 84 87 87 85 80 72 63 64 72 64 56 64 60 56 57 47 57 69 52 32 23 25 25 21 20 14 17 24 21 22 17 20 39 36 26 28 25 21 21 23 23 23 23 26 35 42 36 26 21 19 17 15 15 18 19 21 25 26 28 29 26 28 27 19 18 18 19 22 23 24 23 19 18 17 15 15 14 13 13 14 15 15 14 15 19 26 32
80 83 84 83 86 79 70 73 75 70 58 60 72 62 54 54 45 55 69 54 33 23 22 21 20 20 16 19 23 18 19 14 12 29 34 26 27 28 24 19 19 21 20 18 22 29 30 24 22 22 19 19 20 20 23 24 23 27 30 30 27 25 26 25 21 22 22 21 24 27 29 27 23 23 21 17 16 16 15 14 14 16 17 18 20 24 28 31
79 82 81 82 86 76 71 83 83 64 52 63 73 58 49 54 49 54 63 49 34 32 30 28 29 27 20 21 23 20 17 13 18 32 34 27 25 25 22 17 19 21 19 16 20 26 24 19 21 24 24 26 27 26 28 31 26 25 31 30 25 24 24 27 30 33 35 33 30 32 33 27 22 22 19 17 18 17 16 16 15 14 16 17 20 27 32 33
79 79 79 82 84 76 72 79 79 66 61 71 68 51 47 50 46 53 61 49 37 40 37 31 32 28 24 27 26 21 19 20 33 42 35 30 28 23 20 17 18 20 18 16 18 21 21 20 21 25 28 32 36 33 30 33 29 27 39 45 36 29 32 38 39 40 44 40 31 34 39 32 22 18 16 15 18 18 17 18 17 15 16 15 16 24 32 34
77 77 79 82 83 81 77 77 79 70 68 76 67 52 51 47 44 48 50 43 37 41 41 35 33 28 29 35 29 19 19 28 39 40 35 35 31 24 23 20 17 19 18 19 23 21 19 24 28 31 34 36 39 35 30 32 30 33 48 55 42 33 38 41 40 44 46 38 33 35 38 37 29 21 17 15 16 18 17 17 18 18 16 14 12 18 30 33
75 79 81 84 85 84 82 85 86 74 72 76 65 58 57 51 53 52 43 40 37 35 36 34 30 29 35 40 33 24 25 31 36 36 34 33 30 28 26 21 18 19 17 20 29 30 30 35 35 36 40 40 35 34 40 38 31 40 50 47 39 36 38 37 39 45 42 38 43 43 38 37 31 21 18 17 17 17 15 14 15 15 14 14 11 13 27 33
78 81 84 89 89 85 84 86 86 79 78 72 59 58 57 53 56 48 38 38 33 28 30 31 32 33 37 36 32 29 29 29 31 36 34 29 31 31 28 25 21 21 21 19 25 32 36 39 36 38 42 39 34 41 55 47 35 47 53 42 40 40 36 37 39 41 41 42 45 45 40 37 28 20 21 23 20 19 17 13 12 12 11 14 12 11 23 34
85 85 89 95 96 92 86 84 86 84 77 65 54 54 57 58 50 39 40 39 28 27 30 32 35 34 33 32 31 29 28 29 32 36 33 29 33 31 28 28 23 25 31 30 31 33 32 33 37 42 39 35 40 47 54 52 42 47 48 38 43 47 40 41 40 37 44 45 39 37 37 36 32 28 25 25 22 19 16 12 11 11 10 12 13 14 23 34
90 92 96 98 98 95 85 81 85 80 67 56 53 56 60 57 42 33 39 35 28 35 35 32 35 34 30 30 33 31 29 31 32 35 34 32 35 33 31 33 31 33 40 42 40 35 34 37 38 44 40 35 44 48 45 48 47 46 42 35 42 47 43 45 42 41 48 41 30 32 34 35 37 32 23 19 19 16 14 13 11 11 11 12 14 17 25 33
90 95 100 100 99 96 88 82 81 75 64 54 56 62 58 47 36 31 31 26 28 37 34 32 36 35 32 32 35 36 33 31 31 32 35 39 41 38 35 36 37 39 43 43 40 38 43 41 35 42 46 39 41 45 44 45 47 49 45 38 42 44 44 49 51 54 55 41 29 31 35 37 33 26 19 15 14 15 14 13 11 12 12 12 19 25 29 35
94 97 101 102 100 98 95 87 83 82 68 57 65 67 54 48 45 36 26 22 29 35 32 32 34 34 36 38 39 41 41 38 32 29 33 40 43 41 38 36 36 39 43 41 40 46 51 45 41 44 44 40 36 35 41 45 46 47 45 45 50 46 41 45 50 51 46 38 32 31 37 40 30 22 21 15 11 13 13 10 12 15 11 13 27 34 34 38
99 100 100 101 100 99 99 91 88 85 67 64 81 77 63 62 57 43 31 25 26 29 32 36 38 37 39 40 39 43 46 43 35 30 35 42 46 47 42 37 37 37 42 43 39 43 44 39 44 46 41 42 37 27 30 38 44 42 37 39 45 43 35 32 36 36 32 35 33 30 38 39 27 21 21 17 13 13 12 10 14 17 13 22 38 38 35 38
100 100 99 100 100 99 100 96 93 84 68 74 89 79 69 73 66 55 44 32 23 22 29 38 42 44 46 43 41 40 38 39 38 35 38 43 46 48 42 37 37 34 39 45 38 35 35 30 37 43 42 43 37 29 27 33 45 43 34 35 39 38 32 28 33 31 30 40 36 30 38 32 18 15 15 14 14 14 13 12 14 14 14 29 42 39 39 40
100 100 99 100 100 98 99 99 96 83 73 83 91 81 76 74 65 54 43 31 25 23 30 38 42 49 50 44 46 45 38 39 44 42 43 43 41 41 39 35 36 33 34 39 35 33 35 37 44 44 41 42 38 35 32 31 39 42 40 42 39 36 34 34 39 33 32 42 34 26 33 26 17 17 14 12 13 12 13 13 13 12 12 24 34 37 41 41
100 100 99 98 98 97 98 100 97 85 82 91 92 85 82 73 57 47 39 33 29 26 32 37 39 43 41 37 42 48 46 43 46 48 47 47 43 38 35 34 34 32 30 29 30 33 29 32 47 48 39 43 43 41 40 36 35 40 45 43 39 42 42 37 39 38 38 43 34 26 30 27 24 25 19 15 15 12 12 13 12 12 13 19 27 33 38 38
100 101 99 94 93 95 98 100 96 90 91 97 95 89 85 73 56 47 43 41 38 36 40 41 37 34 32 32 33 40 47 45 45 52 48 43 42 37 33 33 33 32 28 25 29 36 31 27 41 54 51 45 42 40 42 41 37 40 45 42 42 49 50 42 40 41 40 39 34 30 31 28 25 24 19 17 18 15 13 13 13 12 14 19 25 31 35 38
98 101 98 91 86 91 98 100 96 95 97 98 98 95 87 75 62 54 51 50 47 45 44 42 38 35 33 31 29 34 44 43 41 47 43 35 36 35 30 29 34 34 27 27 30 33 35 30 34 55 60 45 40 43 44 43 41 41 42 42 42 42 46 48 41 34 33 34 34 33 33 30 24 19 16 15 17 16 13 14 14 13 15 20 24 29 36 41
96 99 100 95 89 91 97 99 98 99 99 96 94 92 86 78 70 61 55 55 54 49 49 50 50 48 45 43 38 34 39 41 39 41 38 30 28 30 29 25 30 37 29 27 31 30 34 33 30 50 60 46 42 46 43 39 40 42 43 43 40 35 39 46 40 31 32 34 35 36 36 29 20 15 13 14 15 16 14 15 18 18 17 20 24 28 34 41
96 98 100 100 97 95 98 101 98 97 100 97 90 86 80 75 72 67 60 60 61 55 52 57 62 61 59 58 51 41 39 40 36 36 35 29 24 26 29 24 25 35 36 33 35 34 37 37 33 44 54 46 39 36 33 31 32 37 40 38 37 36 36 42 40 34 35 35 32 36 39 29 18 13 13 13 14 16 18 19 22 23 21 23 27 29 32 37
98 99 98 99 102 98 97 100 95 94 100 98 89 84 79 75 75 73 66 65 70 65 58 60 64 66 67 67 64 59 58 54 46 43 37 31 28 25 25 23 20 27 35 39 39 34 33 37 38 40 40 35 33 35 38 36 30 34 37 33 33 34 34 38 38 32 35 36 32 35 41 31 16 13 15 15 15 18 20 19 21 23 22 25 31 32 33 36
97 100 97 99 101 93 94 99 95 96 100 92 84 81 78 79 80 76 70 71 75 73 71 69 68 70 71 69 68 69 72 69 60 53 48 41 35 27 23 23 23 22 23 30 38 36 35 37 39 39 36 31 32 37 44 44 36 36 39 36 35 34 32 35 34 29 32 37 34 37 43 34 18 15 17 16 18 20 19 17 19 23 23 27 32 33 35 37
94 97 98 102 100 91 94 98 94 97 97 89 87 85 80 80 80 78 76 74 74 77 78 74 71 74 73 69 69 69 72 77 70 56 52 50 40 31 30 30 29 24 20 29 40 40 40 42 39 42 46 44 42 38 39 44 42 39 38 37 38 37 37 40 37 33 37 37 33 37 41 32 20 19 20 18 18 17 17 17 18 21 23 27 31 32 35 36
93 95 96 100 100 96 94 85 80 89 92 89 91 89 83 83 78 75 75 71 69 75 79 76 73 74 73 72 75 73 71 80 82 68 58 58 50 39 38 38 33 27 29 43 48 39 41 48 48 53 59 58 56 49 41 43 44 41 39 37 37 39 43 44 41 42 44 39 34 38 39 29 20 20 20 19 17 16 15 16 17 19 20 24 31 33 33 34
96 97 99 101 100 100 96 81 75 85 87 88 94 89 85 86 76 68 73 74 69 70 76 78 77 77 78 78 82 83 77 78 85 80 71 70 64 49 42 41 36 34 40 49 48 43 52 60 60 65 68 62 58 51 42 41 41 40 42 42 40 41 43 46 47 48 44 41 41 40 37 34 29 24 22 20 18 18 17 16 17 18 19 25 35 39 36 34
97 94 91 94 98 99 100 95 92 93 85 84 90 84 80 85 79 72 73 74 70 69 75 80 79 82 85 81 84 88 82 78 81 80 76 75 70 59 52 49 46 44 46 47 43 46 64 74 71 74 76 68 60 52 45 46 46 44 45 45 42 42 45 50 51 44 38 44 47 38 33 40 36 27 24 22 19 19 19 18 19 18 18 22 33 41 41 39
94 90 81 83 90 92 93 94 95 96 91 87 85 79 77 80 82 82 76 70 68 70 81 89 84 83 83 78 83 89 84 82 84 81 79 78 76 71 67 62 57 50 49 52 51 51 68 82 80 82 83 75 68 62 55 55 55 50 48 47 42 41 45 50 49 41 38 44 45 35 34 39 34 26 25 23 20 21 20 19 19 19 19 20 24 33 39 42
87 91 84 81 90 92 88 86 88 95 97 94 92 88 86 84 80 78 72 72 76 72 78 92 87 80 81 78 82 88 84 83 85 79 76 78 78 78 76 71 67 61 58 62 64 62 72 83 82 84 88 82 76 73 67 64 63 58 55 52 47 45 45 46 45 42 42 44 40 35 37 37 30 26 24 21 21 21 20 19 20 20 21 21 20 25 33 39
91 96 90 89 94 93 90 88 90 97 96 93 96 92 89 88 85 77 69 71 81 76 74 85 83 74 76 77 81 86 78 74 76 70 69 75 77 79 81 76 72 73 73 73 73 71 75 81 80 83 90 87 78 76 74 72 70 66 62 58 54 52 50 49 48 45 47 48 42 40 45 41 31 25 24 22 22 22 21 21 21 20 21 23 22 24 30 35
87 90 89 98 99 88 87 89 89 97 98 94 96 91 87 89 85 82 77 70 74 79 78 83 84 78 77 79 82 81 69 63 67 63 58 63 66 69 73 73 72 77 80 78 76 75 77 80 80 86 97 91 78 77 79 76 76 78 75 69 63 60 57 53 52 49 49 50 48 48 51 45 32 26 27 26 24 24 25 24 23 23 23 24 24 27 31 32
81 84 82 94 99 86 83 86 85 94 95 85 85 85 83 84 78 81 88 75 66 72 74 75 82 88 91 89 83 76 70 68 70 68 63 63 63 61 60 62 65 72 78 79 78 78 79 82 84 91 100 91 77 79 81 81 90 94 83 70 64 61 58 55 53 50 47 48 53 54 48 39 31 29 30 29 27 28 27 25 25 25 24 25 26 28 32 32
Wind_Speed
13 14 14 15 15 15 15 14 14 14 14 14 14 13 13 13 14 14 14 15 16 16 17 16 12 11 11 9 8 9 9 10 10 10 9 10 10 9 10 11 10 9 6 4 3 5 5 8 10 11 7 4 3 3 4 4 2 2 2 3 4 5 5 2 2 2 1 1 3 5 5 4 3 3 2 2 4 5 5 6 5 6 5 5 9 16 24 26
14 14 15 15 15 15 15 15 15 15 15 14 14 14 14 14 14 14 14 15 15 16 17 17 13 10 11 10 8 8 8 9 12 13 16 16 15 14 13 12 12 9 6 3 4 7 7 6 9 10 6 2 4 3 3 3 2 3 3 3 5 5 4 1 3 3 2 3 1 3 6 4 3 5 3 2 5 6 8 9 7 9 7 8 11 18 24 24
14 14 15 16 16 16 17 17 16 16 16 15 15 15 15 14 14 14 14 14 15 16 16 17 14 11 11 10 8 7 6 8 9 10 15 18 17 17 14 11 10 8 7 6 4 6 7 8 7 5 5 3 4 4 3 3 3 4 3 3 6 4 4 4 4 3 3 3 4 4 3 4 5 2 4 3 6 7 10 9 8 11 10 9 10 17 22 21
14 15 15 16 17 17 17 18 18 17 17 16 16 15 15 15 15 14 14 14 14 15 15 17 15 11 10 9 7 5 4 5 4 3 8 15 16 17 14 10 9 8 8 6 5 7 8 10 9 5 4 4 5 5 3 3 3 3 4 5 7 4 5 5 5 4 5 4 3 6 0 3 5 3 5 4 6 8 9 9 10 13 14 12 11 15 20 19
15 15 16 16 17 17 18 18 18 18 18 17 17 16 16 16 15 15 15 15 15 15 15 16 15 12 9 7 5 3 3 2 1 1 3 11 14 14 13 10 8 8 8 6 5 7 8 9 7 4 3 4 5 4 5 7 4 2 5 7 9 8 6 2 4 4 3 3 1 5 5 3 2 3 6 7 8 9 6 5 6 6 9 12 15 15 16 15
15 16 16 16 17 18 18 19 19 19 19 19 18 17 16 16 16 15 15 15 15 15 15 16 14 12 9 5 2 0 1 2 1 2 1 6 11 11 11 9 7 7 8 5 6 6 6 7 5 4 3 4 6 7 7 7 6 3 6 8 10 10 7 3 2 2 1 2 4 4 4 2 2 5 6 10 14 12 7 4 0 3 2 9 16 14 13 14
16 16 16 17 17 17 18 19 19 20 20 20 19 18 17 16 16 15 15 14 15 15 16 16 13 10 7 3 1 2 3 4 2 0 3 6 10 9 9 8 6 7 7 5 7 6 5 6 6 4 4 6 7 8 4 3 5 5 6 8 10 8 7 6 0 4 4 5 7 1 2 2 6 6 5 11 16 13 11 8 3 5 7 11 13 12 14 15
18 18 18 17 17 17 18 18 19 20 20 20 20 19 18 17 16 16 15 14 15 15 15 15 12 8 5 1 1 3 4 5 4 3 4 8 10 9 7 6 6 7 7 7 8 6 5 6 7 5 5 5 4 5 2 1 5 7 8 9 7 4 4 6 3 6 6 6 5 3 3 7 9 6 8 16 15 11 10 10 6 6 7 9 11 13 13 13
19 20 19 19 18 18 18 18 19 19 20 20 20 20 19 17 17 16 15 15 15 15 15 15 10 7 4 2 2 4 3 4 5 5 5 8 9 9 7 5 5 6 6 8 9 8 5 4 5 2 3 5 6 8 4 2 4 4 6 7 5 6 6 7 7 7 7 5 4 6 9 10 8 5 10 18 16 12 10 10 9 7 8 9 10 12 13 13
21 21 21 21 20 19 19 19 19 19 19 20 20 19 19 18 17 16 16 15 15 15 15 13 8 6 3 3 3 4 3 3 3 4 6 8 9 8 7 7 6 7 7 8 9 9 5 3 4 3 3 4 6 8 4 3 2 2 5 7 8 10 10 9 10 9 7 6 8 9 10 10 6 3 9 15 12 11 12 12 12 10 9 10 10 10 12 13
22 23 24 23 22 21 19 19 20 19 20 20 20 19 19 18 17 16 16 15 15 16 14 10 6 5 4 3 4 4 4 4 3 4 5 7 8 8 9 9 8 8 9 9 10 10 6 5 4 2 1 2 4 7 4 0 4 4 5 8 10 11 12 12 13 11 7 6 9 9 8 9 4 5 13 16 7 6 10 11 12 12 11 11 11 11 10 11
22 24 25 26 25 23 21 20 20 20 21 21 21 20 19 18 17 17 17 15 15 15 12 7 4 5 4 4 7 8 7 5 4 4 5 6 8 9 9 9 9 10 8 7 7 7 6 4 2 2 3 2 5 5 2 2 5 5 3 7 12 12 13 14 14 12 9 6 7 7 5 8 9 12 18 18 10 6 8 9 10 11 12 11 11 11 9 11
22 23 25 27 26 25 24 22 21 21 21 22 23 22 21 19 17 17 17 16 15 13 9 5 4 5 3 3 7 12 12 9 6 5 6 6 6 7 8 9 9 10 9 7 5 2 5 3 1 5 3 3 4 3 2 2 3 5 4 6 10 9 9 13 13 12 10 6 9 8 3 7 11 16 19 18 12 10 10 10 10 9 10 10 10 10 11 12
22 23 25 26 26 26 25 22 21 22 22 22 23 23 22 20 17 16 16 16 14 11 6 4 5 4 3 4 6 10 12 10 7 6 6 5 4 4 6 7 7 8 8 7 6 4 5 3 1 4 2 2 3 3 5 5 4 5 5 5 6 5 7 9 6 10 10 5 10 8 5 8 9 12 16 16 12 11 12 11 10 10 9 9 10 11 12 12
21 23 25 26 26 26 25 23 22 22 23 23 24 24 23 20 17 16 15 15 13 9 5 5 8 5 1 6 6 6 9 8 6 7 7 7 6 3 5 5 4 5 4 5 5 3 3 2 1 2 2 1 1 3 5 5 5 4 2 4 5 4 7 8 3 13 12 4 8 8 4 9 10 13 13 12 11 12 12 11 10 11 11 11 11 11 12 12
22 23 24 26 26 25 24 24 23 23 23 23 24 23 21 18 16 16 15 13 9 6 5 5 10 8 3 3 3 3 6 5 7 10 9 10 8 3 6 6 2 2 2 2 2 2 3 1 1 1 1 1 2 4 4 5 6 4 5 6 6 5 8 6 3 10 10 6 8 11 5 7 8 10 7 6 11 12 11 11 11 12 12 12 12 11 11 11
21 22 24 26 25 23 24 24 23 22 23 24 24 22 19 17 16 16 12 8 6 8 8 2 6 8 2 2 3 3 5 6 9 10 10 12 10 6 6 5 3 4 3 2 2 2 3 2 1 1 2 4 4 4 3 5 6 4 5 6 7 8 8 5 2 5 6 7 8 12 10 11 10 9 6 4 9 11 11 11 11 11 10 12 12 10 10 11
20 21 23 26 24 23 24 23 22 22 23 24 23 21 20 16 13 10 5 5 4 6 6 4 3 5 3 5 5 2 6 8 10 9 9 12 11 8 6 3 3 5 4 3 3 4 3 3 3 2 3 4 5 5 5 7 7 6 6 5 6 7 7 9 6 3 8 7 7 10 11 15 15 11 11 11 10 10 12 11 12 13 12 13 13 11 10 11
18 19 23 25 22 22 22 20 20 21 22 23 22 18 16 11 5 3 5 6 4 4 3 4 7 4 2 5 5 5 6 9 9 8 9 11 10 9 7 3 3 4 3 2 4 6 4 2 3 4 6 8 8 9 10 11 10 10 10 8 7 7 8 13 10 4 11 8 8 11 12 15 15 13 12 14 13 13 13 11 12 13 13 13 13 11 10 11
16 18 22 22 19 20 20 18 19 19 20 21 20 16 9 4 2 1 4 6 7 7 6 3 10 7 4 3 6 7 6 7 6 6 11 12 11 9 5 4 2 1 4 4 5 4 3 4 5 8 11 10 10 12 14 14 13 13 11 9 8 8 10 13 12 6 10 7 9 14 13 14 15 13 13 12 12 14 14 13 13 13 13 13 14 12 11 11
15 17 20 19 17 19 19 18 18 17 16 15 15 10 3 3 3 2 1 6 12 15 13 8 10 9 6 4 10 10 5 3 4 6 14 14 12 9 5 6 4 3 7 7 4 1 1 6 10 15 15 11 10 12 12 11 12 11 9 8 8 8 10 13 11 5 7 5 7 10 10 12 14 13 13 12 12 15 16 16 17 16 15 14 14 13 10 6
16 15 17 17 17 18 18 19 17 13 13 12 10 5 3 4 2 0 1 6 10 14 14 11 10 9 6 5 11 11 3 4 6 6 14 13 10 8 6 8 7 7 7 6 4 2 4 9 14 16 13 11 12 11 9 9 10 9 7 6 7 8 9 11 9 1 3 3 5 8 9 11 14 14 14 14 14 16 17 18 17 16 16 15 13 11 7 7
15 14 15 15 16 18 18 19 14 10 13 11 7 5 4 4 2 2 1 5 8 11 11 11 12 12 10 7 9 11 5 9 10 8 18 17 8 6 6 9 10 8 7 9 9 7 7 10 14 16 13 13 15 11 8 8 8 8 7 6 7 9 7 7 6 3 4 5 6 8 8 10 12 13 15 18 19 17 17 18 16 15 16 16 14 10 8 10
14 13 13 13 16 17 18 18 10 8 12 9 5 6 6 2 1 3 1 4 7 9 11 13 12 11 13 8 9 14 10 10 8 7 20 19 7 4 5 9 10 8 8 12 14 14 13 7 7 11 12 13 13 10 7 6 7 8 7 8 9 10 11 10 8 3 3 5 4 5 8 8 9 12 14 14 15 15 14 14 14 15 15 14 14 9 9 11
12 12 11 12 14 16 17 12 7 11 13 5 3 8 7 2 1 4 2 4 6 4 4 7 6 6 9 6 10 11 5 7 4 2 16 16 6 5 4 6 7 8 11 13 14 14 14 8 6 7 7 7 9 7 7 6 8 9 7 10 14 13 13 12 9 6 4 5 1 2 7 8 7 10 11 7 7 10 9 11 14 14 13 13 12 9 8 9
12 11 10 9 11 16 14 5 7 16 10 2 5 9 6 4 3 3 2 3 7 1 1 3 4 4 6 4 6 5 2 4 1 4 10 8 2 3 3 4 4 8 9 9 9 8 7 7 8 10 9 8 7 7 7 7 7 9 4 5 8 8 8 8 6 3 2 5 3 4 3 11 7 7 9 7 6 9 8 10 13 12 12 13 11 8 9 9
12 10 9 8 9 13 9 4 12 15 4 2 9 10 8 5 5 4 1 4 7 3 4 2 1 3 4 1 1 4 0 3 3 4 3 1 2 1 3 6 5 5 4 2 5 4 4 6 5 7 9 7 8 8 7 8 7 6 2 1 2 2 3 3 3 3 4 4 5 5 5 10 13 5 8 10 9 9 9 10 11 11 13 15 13 8 9 11
13 11 9 8 8 7 5 7 12 8 3 8 12 10 9 6 5 4 1 5 5 4 4 1 1 2 3 3 3 2 1 1 2 2 4 4 2 1 4 9 6 5 5 5 8 3 2 7 8 8 8 6 7 7 5 8 7 5 3 2 2 2 2 1 2 5 3 4 5 5 7 7 14 6 6 10 10 10 12 12 12 13 15 15 14 11 9 12
15 13 11 10 10 8 6 6 7 5 8 13 11 9 8 5 3 1 0 5 2 3 2 1 1 1 3 1 0 2 1 1 1 1 2 2 3 0 4 6 5 6 5 7 10 5 0 4 5 6 7 7 7 3 2 5 6 4 3 1 2 2 2 2 5 4 2 5 6 6 7 5 13 8 4 7 8 10 11 11 12 14 15 13 12 12 9 10
18 17 14 12 11 9 6 5 6 8 11 11 9 7 6 4 1 1 4 6 1 3 1 1 1 3 7 5 4 5 3 0 2 2 1 2 2 0 3 2 2 5 5 6 9 8 3 2 0 3 5 5 4 4 1 2 2 2 2 1 2 4 3 1 4 1 2 9 7 9 12 9 10 5 5 6 7 9 9 9 10 11 12 11 10 10 8 8
21 20 17 17 15 9 4 3 5 5 8 8 6 5 4 1 1 4 8 4 1 1 3 2 2 6 9 7 4 6 6 3 4 5 3 2 3 2 2 1 1 2 4 5 8 9 5 2 2 2 2 4 6 3 2 1 2 3 4 1 3 4 1 2 2 3 3 10 5 10 15 15 11 5 3 6 7 10 10 9 10 12 12 12 10 9 8 9
23 23 22 21 20 15 8 4 3 2 6 6 5 3 1 1 3 9 6 2 1 3 3 3 5 6 7 6 3 6 7 4 6 7 5 4 4 5 6 6 5 2 3 5 5 6 6 8 8 2 1 5 6 2 1 2 1 4 5 4 0 3 2 1 2 3 6 11 7 9 12 12 13 8 6 8 7 10 11 10 11 11 10 11 9 7 7 8
25 25 24 24 24 22 18 13 9 7 5 3 3 2 0 2 8 9 4 1 2 1 1 1 5 6 5 4 4 6 5 3 7 8 6 7 6 7 9 9 6 3 4 4 4 3 4 6 8 4 3 6 9 6 4 2 4 8 6 6 6 4 4 4 4 4 7 9 8 8 8 5 7 6 10 14 15 14 12 11 12 9 10 11 7 7 7 8
27 26 25 25 25 25 23 19 15 10 2 4 2 1 2 6 8 2 3 5 4 2 1 2 4 6 6 5 4 6 5 4 8 8 6 7 5 5 8 11 12 7 2 2 3 4 5 7 6 10 4 8 13 14 12 5 6 10 7 6 7 5 4 5 5 7 8 7 6 4 5 4 4 4 11 15 16 15 11 12 11 9 10 7 6 7 7 8
27 26 25 24 23 23 24 22 18 11 7 7 3 2 5 9 7 2 2 5 5 4 2 1 3 6 6 6 4 5 6 5 7 8 6 7 7 6 7 9 14 11 3 2 4 4 7 9 8 12 4 11 17 16 12 5 1 6 5 5 8 7 6 6 7 9 6 5 7 4 4 7 7 8 10 10 11 11 11 12 10 9 10 5 7 7 7 7
22 23 20 21 23 23 24 24 19 14 12 8 3 4 8 8 4 3 3 2 3 3 1 2 3 4 5 5 5 7 7 4 6 7 5 8 9 8 8 6 13 15 10 7 4 3 6 7 6 8 1 7 13 10 10 8 3 3 5 6 7 4 6 6 8 7 3 5 9 7 6 8 8 11 12 14 16 12 10 10 10 12 12 8 7 7 7 8
16 16 13 18 24 23 24 26 22 18 11 6 5 7 7 5 4 3 5 6 6 5 3 4 3 4 6 5 5 8 7 3 6 6 4 6 7 9 11 7 10 17 17 12 5 4 7 6 4 9 5 5 4 2 5 7 3 5 4 7 2 2 1 3 3 3 3 7 8 8 11 10 9 10 5 5 12 12 10 10 11 13 12 7 7 8 8 9
9 8 9 17 24 22 24 27 24 18 8 3 8 10 6 4 4 3 6 9 9 8 7 8 5 5 7 7 6 7 9 6 7 6 5 5 5 9 12 8 8 17 20 16 7 5 6 7 5 4 2 1 1 1 5 5 2 5 3 3 2 1 3 3 2 3 5 7 6 9 13 12 11 10 5 2 8 11 10 9 9 11 9 6 8 8 6 7
3 2 4 9 15 19 24 28 21 11 4 5 9 9 6 7 8 6 7 10 9 7 8 8 7 7 9 10 9 5 8 9 8 6 6 5 5 7 11 8 8 14 19 17 10 6 4 6 6 2 3 1 2 2 6 4 2 2 2 4 0 2 4 4 3 4 5 7 7 8 10 12 11 7 6 10 12 10 8 8 8 9 7 7 8 7 5 7
2 2 2 3 9 18 26 25 15 6 4 5 7 8 5 5 6 5 8 8 6 4 5 6 7 7 9 11 13 10 6 8 8 6 6 6 5 5 8 8 7 9 16 16 12 7 2 4 6 2 4 1 2 4 9 9 7 5 2 4 2 1 1 1 2 3 5 7 6 6 8 13 10 2 3 6 9 11 9 8 8 7 5 6 6 6 6 7
3 3 3 9 15 23 24 15 7 5 4 3 5 8 7 4 4 5 7 6 5 4 3 5 6 7 9 10 11 11 7 6 6 5 5 5 5 4 3 5 4 3 6 8 8 7 3 4 7 3 1 5 7 8 12 15 12 9 8 9 8 7 4 3 6 6 5 5 6 6 8 13 8 2 5 3 7 9 9 7 5 4 5 6 6 7 8 7
3 4 4 14 24 27 19 5 3 4 3 4 4 4 4 4 5 8 8 6 6 6 3 4 6 8 9 9 9 10 8 7 8 7 6 5 6 5 4 8 10 6 1 4 6 7 4 2 5 6 6 8 10 8 8 11 10 5 5 8 8 8 8 8 10 7 5 4 5 6 9 15 11 2 7 6 2 2 3 7 7 7 7 7 7 8 8 8
3 3 5 17 30 27 11 2 4 4 3 4 4 5 5 4 4 6 7 6 6 5 4 4 6 8 9 8 9 10 9 8 10 12 11 9 8 9 11 15 15 11 5 3 3 4 2 2 4 8 6 5 7 4 2 2 2 3 4 6 7 7 8 9 7 5 5 5 6 8 10 12 12 6 5 8 6 6 7 3 6 7 6 7 8 8 8 9
3 2 3 17 32 24 6 3 6 6 7 7 7 9 8 6 7 9 10 9 7 5 5 7 7 8 8 8 8 11 11 8 9 12 12 9 8 9 11 11 10 7 3 1 3 4 5 2 4 7 6 5 6 6 4 3 2 2 5 6 7 7 7 7 5 4 6 7 10 12 10 9 10 5 5 10 10 10 11 6 4 2 4 6 7 8 9 9
2 2 1 13 27 18 5 6 7 7 9 11 13 14 12 8 8 14 17 16 12 8 7 8 8 9 8 8 9 12 13 10 7 7 7 8 8 8 10 10 7 4 2 2 4 2 2 3 3 5 7 8 7 8 7 4 2 2 4 6 7 7 8 7 6 6 8 10 12 13 10 10 12 13 12 14 13 11 12 11 7 6 7 7 7 8 9 9
2 3 1 6 12 10 6 7 9 8 9 10 10 10 14 13 9 13 17 15 12 13 11 7 5 7 8 11 12 12 13 13 10 7 7 9 8 7 8 10 8 7 8 8 6 2 2 0 5 8 9 8 8 9 9 9 8 7 6 8 8 8 9 7 6 7 9 10 12 12 12 14 15 18 22 21 18 16 15 15 13 10 9 8 7 9 9 9
3 3 3 3 4 6 6 7 9 9 9 10 6 5 13 17 11 10 12 12 12 14 12 9 8 9 9 12 13 12 13 14 13 13 13 13 11 9 9 10 9 11 12 7 2 1 1 4 12 16 16 15 15 16 16 15 16 15 14 14 13 10 10 9 10 12 12 12 13 12 14 18 18 18 22 23 20 17 14 14 15 15 13 10 8 8 9 9
4 3 3 2 1 4 6 8 11 12 13 12 8 7 12 15 13 11 10 11 13 12 8 8 13 18 18 16 13 10 11 13 13 14 14 13 13 11 10 10 11 14 14 7 4 4 4 7 12 16 18 19 18 19 20 19 19 19 17 18 18 17 14 13 16 19 17 15 15 14 18 23 20 18 21 22 20 17 17 18 20 20 17 15 13 10 8 9
4 4 3 3 2 3 4 5 7 11 13 13 9 10 13 16 17 14 9 8 10 11 11 12 14 18 21 21 17 12 12 12 13 13 12 13 14 11 8 9 10 12 13 9 4 5 5 6 11 14 15 16 18 20 22 23 22 22 21 21 21 21 21 20 21 21 20 19 19 21 25 25 20 20 23 22 20 18 19 22 23 22 19 19 20 14 8 9
3 3 3 4 4 4 5 5 4 6 8 8 8 8 12 16 18 15 11 10 11 10 13 18 20 19 20 21 20 18 17 17 18 18 15 14 12 8 7 9 8 6 8 9 6 6 8 8 12 13 11 14 20 22 23 24 23 24 25 23 21 23 26 27 23 18 18 21 23 24 23 20 19 22 22 20 19 19 21 25 25 23 20 19 20 15 9 9
6 6 5 4 4 4 5 6 6 6 5 5 6 7 10 14 16 15 13 13 15 13 11 15 19 17 17 18 20 21 22 23 25 24 22 18 14 10 8 8 9 7 6 7 6 7 9 8 8 9 8 12 18 23 25 25 24 25 24 23 24 27 27 23 19 18 20 22 23 23 18 15 18 18 16 17 20 21 24 26 24 20 18 19 19 15 10 10
7 7 5 3 3 4 5 6 7 8 6 6 8 9 10 13 12 13 12 10 13 16 15 17 17 14 14 19 20 19 19 20 21 20 18 17 15 14 12 10 13 12 7 7 6 6 8 8 7 8 8 10 15 20 22 19 17 16 17 23 30 32 27 21 19 23 25 21 18 17 16 18 19 16 15 18 22 22 24 23 20 18 18 19 17 12 9 10
Wind_Direction
360 360 360 0 1 1 1 1 2 4 6 7 7 7 7 6 4 2 360 358 357 355 355 354 347 338 336 329 305 285 282 285 291 279 254 257 263 258 260 260 269 274 267 274 194 200 217 205 219 220 208 179 198 219 156 172 195 179 204 225 244 249 250 278 334 354 14 357 146 178 189 219 209 171 156 111 238 244 232 236 215 211 212 140 131 140 144 150
351 350 350 350 351 352 352 352 353 355 357 358 359 359 359 360 359 357 355 353 352 351 351 353 350 341 336 332 320 298 286 281 276 265 256 258 259 257 262 262 261 262 259 256 214 222 230 223 217 199 192 206 198 172 148 171 165 198 239 251 243 261 263 258 333 346 6 326 315 171 186 223 219 169 144 183 227 215 230 242 220 223 207 138 141 146 147 154
342 342 342 342 342 343 344 344 345 346 348 350 352 352 352 352 353 353 351 349 348 347 347 348 347 343 338 331 327 309 294 289 275 260 250 245 241 242 251 253 246 247 249 247 254 263 273 289 284 226 202 232 208 173 179 178 162 212 227 259 252 275 312 316 341 352 7 360 316 283 173 188 245 173 126 217 248 227 227 230 213 223 215 175 161 154 154 161
335 335 335 336 337 336 337 337 337 339 340 342 343 345 347 346 346 347 347 346 344 344 343 344 342 339 341 336 327 307 300 294 270 241 229 222 218 224 231 237 233 237 243 246 276 280 284 292 292 272 235 247 233 190 190 179 170 215 197 234 261 284 313 325 19 27 27 39 319 295 233 182 251 211 156 205 251 245 236 231 219 218 215 193 169 166 167 169
330 330 331 331 331 331 332 332 331 332 332 334 336 337 340 340 341 341 342 342 341 341 340 340 335 331 337 337 325 307 311 287 234 43 237 211 204 206 210 219 220 227 234 239 270 269 267 270 264 257 241 257 253 215 214 201 179 245 235 243 262 273 286 312 68 46 43 65 286 277 260 231 222 205 195 204 232 238 227 233 231 223 222 191 172 172 173 176
326 326 326 327 327 328 327 327 327 326 327 328 329 331 333 334 335 335 337 338 337 338 338 337 331 326 333 343 346 216 246 273 104 70 214 199 197 195 194 205 210 217 222 233 264 261 256 256 245 238 232 247 252 245 238 198 161 236 253 251 263 270 272 262 104 114 132 199 230 244 269 266 204 235 227 218 231 239 237 258 286 80 80 151 163 169 174 185
325 324 323 323 323 324 324 323 322 321 322 323 324 325 327 329 328 329 332 333 333 334 336 336 328 319 328 4 45 185 222 273 296 198 168 177 189 192 191 197 202 203 203 228 246 246 251 253 249 247 245 247 254 260 259 145 156 226 259 260 272 282 277 280 168 160 193 228 237 242 17 263 228 238 245 237 239 238 242 259 233 122 105 125 152 174 182 191
325 324 322 322 320 322 321 319 319 319 318 318 320 321 323 325 324 324 326 328 329 330 335 334 327 315 316 358 287 249 234 248 247 218 183 183 188 188 192 191 198 193 196 229 242 261 280 267 263 267 265 266 298 308 340 106 203 225 252 257 264 279 270 272 222 178 201 225 239 257 258 243 237 250 264 254 253 244 236 245 227 163 143 148 163 183 190 196
326 324 323 322 321 322 320 316 315 315 315 315 316 317 319 321 321 321 322 325 325 327 332 330 319 304 286 240 279 278 238 222 222 218 203 199 195 191 191 184 195 194 206 234 242 259 268 269 276 311 320 298 307 306 306 257 240 226 262 281 297 294 285 271 244 209 208 220 211 229 246 246 243 260 266 255 252 252 244 240 229 192 180 188 183 188 193 200
328 327 326 324 323 322 320 316 312 311 310 310 311 313 315 317 317 317 318 321 322 324 329 326 310 285 259 223 256 266 226 221 234 226 220 216 204 196 196 191 195 202 227 236 229 240 246 297 306 46 22 305 288 285 258 215 271 318 300 302 298 288 284 271 261 239 216 217 199 208 241 250 235 209 252 254 246 238 234 235 231 215 210 208 203 201 197 202
330 330 329 327 326 324 322 318 314 311 308 307 307 307 309 311 313 312 313 316 318 322 326 323 301 257 235 231 248 251 224 221 232 219 219 219 206 198 202 206 204 206 231 240 229 238 261 314 335 58 55 296 306 289 244 215 332 321 321 307 284 275 270 255 250 241 221 220 199 198 248 261 223 198 244 251 237 208 215 224 224 220 224 214 210 213 204 208
330 331 331 330 329 326 325 323 318 313 310 308 305 305 306 307 308 307 309 310 314 319 321 315 284 228 222 251 242 239 235 221 224 229 221 216 210 207 210 215 215 214 231 259 249 233 245 295 337 250 258 306 313 295 263 10 334 297 318 301 282 277 268 253 243 225 206 211 177 165 268 264 227 223 242 249 236 209 212 223 222 217 224 219 214 215 213 215
330 331 331 330 330 328 328 326 322 317 314 310 307 307 306 306 306 304 304 304 308 314 312 291 245 209 213 266 238 230 235 233 235 245 234 225 215 213 221 223 223 224 233 264 284 246 222 239 238 243 278 298 283 307 302 300 282 268 259 261 279 289 269 254 243 209 188 180 151 147 261 253 234 228 233 244 235 212 218 225 224 221 222 221 217 216 218 215
329 330 330 330 330 329 328 327 324 321 317 312 309 308 308 310 306 301 299 299 303 304 294 247 208 186 200 256 250 231 230 234 235 234 230 212 191 211 225 222 226 231 234 248 266 269 227 208 253 264 280 251 265 346 315 274 243 256 269 256 258 276 270 266 237 174 168 171 153 155 250 254 259 248 231 236 224 198 212 224 221 222 222 224 222 221 223 215
327 328 328 329 329 329 329 327 326 323 320 315 311 310 312 312 305 298 294 290 290 284 256 205 188 173 255 260 253 236 225 231 221 211 216 189 175 208 199 193 217 222 226 243 243 237 203 175 231 263 269 222 287 314 289 273 251 228 253 269 237 223 264 275 185 163 169 178 169 161 238 254 257 262 245 225 207 190 206 221 218 219 221 226 228 224 224 221
323 326 326 326 328 329 328 326 326 325 323 319 315 316 316 313 301 293 289 279 271 243 199 191 193 191 292 258 208 222 213 215 203 201 211 190 173 168 162 163 175 185 202 224 214 188 157 176 230 220 262 225 187 229 257 277 266 217 201 243 244 236 265 268 192 187 173 135 186 193 225 258 237 251 255 184 185 193 208 220 218 220 223 227 234 229 221 223
319 323 323 324 326 327 325 326 329 327 325 322 322 324 321 311 292 285 285 262 236 198 186 210 192 187 259 237 211 232 183 181 192 197 207 194 178 159 157 167 171 163 171 176 167 174 171 179 160 108 232 224 213 213 238 259 257 242 220 236 244 240 257 265 246 229 190 138 195 211 228 253 246 251 268 210 193 199 211 224 229 234 236 237 242 236 222 217
316 322 321 322 326 326 326 330 331 328 328 326 326 328 321 308 286 276 259 197 165 170 205 275 202 189 246 222 207 159 136 160 179 186 195 190 182 176 176 183 172 162 165 190 194 176 174 186 182 233 248 219 212 201 209 229 234 250 252 261 261 250 258 264 279 231 195 192 213 215 229 248 254 256 261 258 241 227 223 227 239 245 245 246 248 243 235 218
316 322 318 320 327 331 334 337 333 332 333 328 331 333 318 306 282 230 189 175 144 153 225 220 190 209 250 189 164 118 121 150 165 176 181 179 177 177 187 193 168 180 184 193 198 177 168 187 193 233 244 220 208 205 213 228 237 255 265 271 270 275 273 265 277 216 182 201 223 221 231 245 253 251 248 253 250 248 243 233 239 244 244 246 248 244 236 224
317 318 314 321 336 342 345 343 335 338 340 336 343 342 321 311 299 216 184 208 224 254 295 215 193 227 252 143 127 134 135 149 166 173 172 172 166 161 190 206 149 218 226 196 184 170 166 185 200 224 233 225 214 216 223 230 239 252 263 270 268 270 272 270 279 236 183 191 222 224 234 246 256 257 249 250 250 255 255 248 245 246 249 250 251 247 232 227
316 314 317 330 343 347 350 346 339 343 346 347 352 343 343 15 313 307 327 251 241 248 270 255 217 239 249 138 144 159 141 175 209 174 172 172 161 156 185 192 166 211 221 209 200 67 181 206 218 229 237 240 235 237 240 242 247 255 260 270 276 266 267 274 279 248 183 198 236 241 252 257 260 263 258 252 250 253 252 251 252 251 253 255 255 249 227 208
314 318 328 335 342 347 349 346 345 352 357 359 356 342 33 30 333 112 328 279 257 243 254 258 246 254 246 170 169 167 126 224 223 177 173 175 173 180 180 174 193 213 192 192 219 232 221 227 231 236 247 254 254 256 256 261 263 266 272 275 275 266 273 279 269 203 138 206 249 257 262 263 263 262 262 257 250 250 247 246 250 253 255 254 254 245 203 152
310 320 332 335 340 345 346 346 354 12 6 2 2 355 10 12 39 77 230 270 276 251 244 242 238 241 230 215 186 174 193 225 223 195 177 175 184 198 186 182 206 221 183 186 207 219 228 227 229 237 249 251 253 251 241 260 264 251 253 260 263 259 266 277 257 178 163 206 241 267 267 263 268 266 260 256 251 250 248 248 250 251 252 251 251 241 188 164
306 314 326 336 339 341 344 346 5 22 357 353 355 350 352 328 5 33 273 261 266 230 223 227 228 231 223 220 184 186 216 219 216 205 179 175 170 168 200 201 206 223 211 208 212 227 240 223 203 228 238 239 243 243 226 240 258 241 223 230 249 255 251 257 272 274 227 230 250 305 293 262 248 253 254 252 248 249 248 247 250 251 252 254 252 234 188 173
301 306 318 336 337 342 347 348 15 1 342 343 340 340 350 313 296 27 19 268 258 226 239 230 216 229 217 194 170 181 227 216 208 187 176 178 165 150 196 201 205 226 220 222 225 237 248 227 202 224 223 221 228 237 214 204 258 260 216 221 242 254 258 264 292 327 320 279 251 32 312 273 213 227 255 260 235 238 237 233 241 248 253 256 251 226 188 175
292 297 310 327 331 344 353 360 357 342 329 337 344 336 336 306 288 346 23 276 260 213 68 205 181 193 183 154 156 133 8 240 357 67 162 186 207 169 202 181 204 235 218 226 238 243 243 207 204 220 221 224 231 248 221 198 257 271 227 233 253 261 272 276 299 325 257 260 237 111 333 286 258 223 252 264 231 229 228 227 234 241 248 252 250 225 190 176
279 283 294 305 320 344 359 338 331 337 330 316 336 332 324 313 294 299 2 290 272 161 123 237 237 156 144 64 155 120 342 260 36 46 127 322 290 181 227 193 189 226 204 228 248 234 189 169 173 204 217 229 231 246 228 198 238 263 226 263 277 276 281 275 283 251 234 283 273 158 149 277 280 237 218 231 230 235 232 229 233 233 241 250 255 234 185 178
268 268 275 282 295 325 339 304 316 334 322 312 320 315 316 319 296 304 11 280 273 121 120 198 61 92 110 352 351 110 262 255 84 352 3 351 278 147 227 220 214 217 183 189 231 254 137 175 192 197 203 224 224 232 210 186 217 239 211 206 142 151 240 220 250 251 264 314 277 190 152 257 280 268 205 216 218 231 234 231 234 233 236 244 253 244 190 181
262 259 261 266 275 292 302 296 297 296 301 313 316 310 326 330 290 352 52 259 245 94 86 145 113 88 115 103 173 135 307 14 104 285 348 299 251 254 235 235 264 265 239 217 231 261 168 185 207 187 190 220 213 199 194 193 212 215 201 178 106 189 233 205 235 249 298 277 246 198 161 230 276 274 194 200 210 223 233 235 235 235 236 234 238 242 207 178
257 256 255 258 267 277 287 273 252 274 306 318 314 321 345 336 280 157 233 254 315 61 80 117 163 148 141 153 184 197 217 156 98 155 210 229 193 316 294 263 273 277 280 266 258 259 229 132 108 190 194 203 152 122 196 206 184 142 144 281 311 257 239 229 241 184 283 266 237 197 189 204 269 284 155 185 202 204 219 231 237 239 243 237 227 229 203 167
256 257 254 252 252 251 272 256 218 269 321 328 329 344 344 323 142 216 232 250 354 130 151 170 167 149 166 184 178 177 192 195 147 153 184 205 165 184 278 255 184 283 291 278 273 262 240 182 190 233 198 141 112 136 214 182 157 121 126 152 316 288 300 359 291 120 240 264 223 189 197 200 235 262 173 211 198 194 208 213 228 234 238 242 233 216 186 161
259 262 261 255 247 238 239 230 191 276 323 335 358 9 313 272 227 231 235 28 5 204 170 186 180 175 197 211 211 172 174 192 174 175 185 168 176 196 208 208 164 153 254 238 240 250 246 228 209 239 305 165 152 181 263 349 237 153 141 146 191 281 286 294 249 158 230 256 239 208 203 207 234 241 234 250 228 208 209 203 216 223 229 242 230 197 168 152
264 268 267 258 248 237 232 229 236 271 305 4 15 6 18 243 237 230 210 178 246 196 61 162 175 188 196 204 220 177 173 198 169 181 196 172 194 214 211 222 208 213 247 210 212 224 263 257 196 175 288 193 172 181 206 257 198 177 165 157 171 216 245 243 241 238 243 255 260 229 196 219 259 231 215 233 236 224 210 207 213 208 227 241 206 167 158 154
271 272 269 262 251 240 232 226 233 253 252 96 77 70 141 231 245 241 153 203 235 251 333 47 159 196 210 219 205 155 180 226 167 174 197 175 198 223 210 224 225 237 269 203 240 202 234 287 185 171 212 182 183 207 210 182 172 194 183 166 186 193 210 230 232 243 256 277 274 213 169 224 256 220 208 215 229 227 210 210 209 205 230 227 154 154 162 164
278 274 270 261 247 236 228 221 223 216 152 118 97 140 188 229 245 265 240 237 258 259 241 98 165 200 225 237 226 186 201 220 174 174 198 192 203 213 200 206 207 209 198 204 249 194 221 265 197 175 178 165 185 216 210 150 149 220 172 168 217 197 190 235 248 244 264 309 277 228 202 241 257 267 247 229 239 230 213 213 199 211 232 178 141 174 176 174
279 272 262 245 236 231 221 214 208 179 148 131 132 196 215 235 231 209 249 268 278 283 269 243 217 211 235 231 224 222 221 229 192 180 207 215 223 226 210 198 194 196 190 193 226 206 225 265 182 168 218 183 192 215 198 180 206 204 162 195 221 175 169 219 259 266 281 284 273 264 256 271 295 282 249 231 237 224 215 219 192 209 227 186 174 198 185 188
268 259 242 232 236 229 215 212 197 165 147 144 174 208 231 253 254 256 306 320 314 323 323 270 221 198 237 240 218 210 199 206 197 184 199 210 224 226 216 216 191 192 201 204 221 233 224 264 206 177 215 228 209 271 238 226 172 126 185 214 193 44 135 191 248 279 262 254 267 277 273 280 285 278 270 226 231 218 211 211 191 210 222 198 206 213 195 192
260 247 237 242 238 223 210 207 188 156 132 150 204 227 237 241 252 274 301 304 302 296 280 267 241 220 244 253 245 207 183 192 193 184 203 209 219 205 197 219 199 191 207 211 224 251 217 248 258 176 184 238 64 319 259 262 157 138 221 237 130 177 222 177 188 218 240 249 262 279 281 275 255 258 301 269 218 210 207 198 200 223 226 210 224 224 195 171
258 249 269 253 234 218 203 190 170 142 134 180 209 228 229 240 257 267 275 285 296 288 267 265 265 263 266 271 280 255 190 198 198 188 204 208 226 199 177 200 206 194 206 204 209 244 211 225 255 13 21 53 70 236 209 215 218 156 330 325 52 184 187 176 188 198 223 238 257 275 279 276 258 234 241 234 210 198 196 194 214 233 233 225 225 223 188 164
219 247 265 169 192 200 187 172 156 143 176 196 215 226 231 252 261 255 257 264 274 272 263 277 288 289 289 293 296 289 241 219 218 213 214 198 223 229 181 187 204 204 209 205 208 227 208 219 236 329 354 238 194 215 190 189 203 187 219 265 241 204 168 217 236 217 215 224 241 247 254 270 268 192 219 227 185 179 181 190 220 229 232 235 225 224 211 186
190 259 214 161 174 176 166 158 159 164 186 237 236 233 244 270 282 272 280 290 282 268 274 283 276 276 286 291 292 293 289 271 256 242 237 221 233 253 174 178 203 196 207 213 216 219 202 215 223 220 279 232 226 219 205 205 206 193 197 208 208 204 195 236 246 231 218 222 231 226 241 260 258 74 24 35 142 173 165 147 186 209 224 238 223 218 218 203
211 263 184 170 172 162 151 158 193 161 200 239 236 253 258 262 274 270 272 281 275 267 276 275 255 254 265 266 272 286 295 296 296 287 280 281 265 269 332 331 322 340 332 224 221 222 212 196 233 234 230 239 243 234 223 228 230 232 221 212 214 207 197 217 232 231 228 224 234 241 246 253 255 326 351 348 64 170 145 131 163 190 204 222 221 218 219 217
227 240 157 171 172 159 145 203 195 180 225 237 263 277 257 241 258 267 261 249 244 242 236 248 251 245 244 245 258 274 276 273 275 272 279 298 293 290 319 331 331 337 333 297 291 283 269 142 236 256 267 289 283 280 345 326 269 270 260 229 219 218 218 228 234 246 246 218 226 245 245 256 271 275 259 265 264 267 277 233 174 190 208 215 224 228 223 224
243 243 146 175 177 169 160 208 196 213 224 234 256 251 245 247 239 245 251 238 221 211 222 239 242 235 234 233 241 252 256 258 260 261 270 283 287 298 316 331 342 346 341 33 31 332 316 293 252 261 267 286 290 275 284 337 4 256 253 245 238 241 249 259 273 272 256 238 241 252 253 260 280 277 228 247 253 253 267 257 173 203 274 249 236 235 229 227
250 243 187 182 184 188 213 209 207 220 213 224 237 235 239 247 226 229 239 240 229 214 224 235 226 223 231 236 240 240 239 246 255 259 265 267 274 289 289 290 306 305 274 57 67 40 314 320 307 280 257 254 259 255 257 283 301 261 262 263 260 258 252 256 266 258 254 250 246 254 265 269 281 291 283 275 275 274 278 284 287 303 304 282 249 234 233 231
249 230 209 178 190 207 228 213 221 225 211 221 231 228 233 239 236 231 236 245 243 229 233 237 214 215 223 228 241 244 238 241 243 243 246 246 251 258 253 262 275 274 287 330 5 33 100 276 280 273 267 264 262 269 286 295 281 273 273 261 256 260 255 251 255 253 257 263 254 253 268 274 278 282 281 280 281 282 283 291 298 299 296 287 254 231 233 231
260 238 212 190 202 219 221 218 222 221 212 215 212 204 226 237 245 234 224 230 233 230 237 236 220 224 221 219 232 239 236 237 236 237 243 242 242 247 246 253 264 269 279 299 351 105 161 236 254 257 258 262 265 272 283 287 276 271 274 275 274 271 256 247 250 251 255 262 260 256 264 268 265 263 271 276 278 280 284 289 294 291 289 289 262 234 236 241
253 247 224 228 230 214 220 221 222 226 224 219 218 222 233 239 238 226 219 225 226 222 225 226 220 225 229 227 229 231 230 236 236 234 240 243 244 250 252 245 242 246 254 246 165 173 226 237 239 244 248 251 256 263 266 270 270 266 265 268 272 272 263 255 252 249 247 251 257 256 253 256 259 259 264 270 273 281 289 288 288 287 289 288 273 247 233 242
265 268 283 314 298 242 252 253 236 237 235 231 232 233 239 245 242 236 230 234 233 217 217 232 228 222 227 228 230 234 229 233 241 234 230 233 235 241 250 247 238 230 230 234 206 185 215 226 219 230 243 242 241 247 249 253 260 263 261 258 260 266 265 257 252 251 252 255 257 256 253 254 259 260 259 264 272 281 285 283 281 280 279 279 276 265 241 235
269 292 305 316 307 287 287 284 263 256 248 242 241 234 238 247 249 249 242 237 245 229 215 231 236 228 227 226 227 233 229 228 240 240 235 236 231 226 234 240 242 225 210 222 222 193 204 212 207 219 242 239 235 239 239 241 246 253 258 259 257 258 256 252 252 256 260 259 256 255 257 258 258 257 259 266 270 271 271 271 271 272 271 271 274 272 252 239
292 324 330 311 301 292 281 272 260 262 254 237 240 240 243 247 249 256 255 244 250 253 237 241 248 244 242 240 236 238 235 232 238 240 239 242 235 221 219 212 211 216 205 205 206 190 198 213 206 213 239 236 230 236 238 238 240 244 251 258 257 251 249 248 248 248 249 252 255 256 257 257 256 259 265 265 261 260 260 261 263 267 269 268 270 269 251 240
300 327 343 323 298 278 276 285 278 271 263 249 251 250 251 257 259 262 267 257 248 253 253 255 261 262 257 254 251 252 253 251 252 254 254 261 261 250 247 232 213 214 212 203 204 188 192 212 214 211 236 240 227 232 236 234 238 237 232 238 245 246 248 248 247 247 245 244 248 251 248 249 254 260 263 259 258 257 255 255 256 261 266 265 264 260 241 234